Wind_Speed
40 41 42 42 43 43 43 43 43 43 43 43 43 43 43 44 45 46 46 47 47 47 47 48 48 49 50 51 53 54 55 56 57 58 58 59 59 59 59 59 58 57 56 54 53 50 48 45 43 41 39 38 37 35 34 33 31 29 28 27 27 28 29 30 30 31 31 32 32 32 32 33 33 32 31 31 31 30 27 23 20 18 17 17 15 15
40 42 43 43 43 43 43 43 43 43 43 43 43 43 43 44 45 45 46 46 47 47 48 48 49 50 51 52 53 55 56 57 57 58 58 59 59 59 59 58 57 56 55 53 51 49 47 44 42 40 38 37 36 35 33 32 30 29 28 27 27 28 29 30 31 31 32 32 33 33 33 33 33 32 30 30 30 30 27 23 20 19 18 17 16 15
41 42 43 43 44 43 43 43 43 43 43 43 43 43 44 44 45 45 46 46 47 48 48 49 50 51 52 53 54 55 56 57 58 58 58 58 59 58 58 57 56 55 54 52 50 48 46 43 41 39 37 36 35 34 33 31 30 29 28 28 28 28 29 30 31 32 33 34 34 34 33 33 32 31 30 29 29 29 27 24 20 19 19 17 16 15
42 43 43 43 43 43 43 43 43 43 43 43 43 43 43 44 44 45 46 47 48 49 50 50 51 52 53 54 55 56 56 57 57 58 58 58 58 58 57 56 55 54 52 51 49 47 45 42 40 38 37 35 34 33 32 31 30 29 28 28 28 29 29 30 32 33 34 35 35 35 34 32 32 31 30 29 28 28 26 23 20 19 19 18 17 16
42 42 42 42 43 43 42 42 42 42 42 42 43 43 43 44 45 46 47 48 49 50 50 51 52 53 54 55 55 56 57 57 57 57 57 57 57 57 56 55 54 52 51 49 47 46 44 41 39 38 36 35 34 33 32 31 30 29 29 29 29 29 30 31 33 34 35 35 35 34 33 31 30 30 29 27 26 26 25 23 20 20 19 18 17 16
41 41 41 41 41 41 41 42 42 42 42 42 42 43 43 44 45 46 48 49 49 50 51 52 52 53 54 55 56 56 57 57 57 57 57 57 56 55 55 53 52 51 49 48 46 44 43 41 39 37 36 35 34 33 32 31 30 29 29 29 29 30 31 32 33 34 35 35 34 32 31 29 28 28 26 25 24 24 24 22 20 20 20 18 17 16
39 39 39 39 40 40 41 41 41 41 42 42 43 43 44 45 46 47 48 49 50 51 52 52 53 54 54 55 56 56 56 56 56 56 56 56 55 54 53 52 51 49 48 46 45 43 42 40 38 37 36 35 34 33 32 31 30 30 30 30 30 31 32 33 33 34 33 32 31 29 28 27 26 25 24 23 23 23 23 22 20 20 20 19 18 17
38 38 38 38 39 40 40 41 41 42 42 43 44 44 45 46 47 48 49 50 51 51 52 53 54 54 54 55 55 56 56 56 56 56 55 55 54 53 52 50 49 48 46 45 44 42 41 39 38 37 36 35 34 33 32 31 31 31 31 31 31 32 32 33 33 33 31 29 28 26 25 24 24 23 22 22 22 22 23 22 21 20 20 19 18 17
37 37 38 38 39 40 41 41 42 42 43 44 45 45 46 47 48 49 49 50 51 51 52 53 54 54 55 55 55 55 55 55 55 55 54 54 53 52 50 49 48 46 45 44 43 41 40 39 38 36 35 35 34 33 33 32 32 32 32 32 32 33 33 33 32 31 29 27 26 25 24 23 23 22 21 21 21 22 22 22 21 21 20 19 18 17
37 37 38 39 39 40 41 42 43 43 44 45 45 46 46 47 48 49 50 51 51 52 52 53 53 54 55 55 55 54 54 54 54 54 53 52 51 50 49 47 46 45 44 43 42 41 40 38 37 36 35 35 34 34 33 33 33 33 33 33 33 33 33 32 31 30 28 26 25 24 23 23 22 22 21 21 22 23 22 22 21 21 20 19 18 17
37 38 39 39 40 41 42 42 43 44 44 45 46 46 47 47 48 49 50 51 52 52 52 53 53 53 54 54 54 54 54 53 53 53 52 51 50 48 47 46 45 44 43 42 41 40 39 38 37 36 36 35 35 34 34 34 34 34 34 34 34 34 33 32 31 29 28 26 25 23 23 23 22 21 21 21 22 23 22 21 21 21 20 19 18 18
38 38 39 40 41 41 42 43 43 44 44 45 45 46 47 47 48 49 50 51 52 52 53 53 53 53 53 53 53 53 53 52 52 51 50 49 48 47 46 45 44 43 42 41 40 39 38 38 37 36 35 35 35 35 35 35 35 35 35 35 35 34 34 32 31 29 28 26 25 23 23 23 22 21 21 22 23 23 22 21 21 21 20 19 19 18
38 39 40 41 41 42 42 43 43 44 44 44 45 46 47 48 48 49 50 51 52 52 53 53 53 53 53 52 52 52 51 51 50 50 49 48 47 46 45 44 44 43 42 41 40 39 38 37 36 36 35 35 35 35 35 35 35 35 35 35 35 34 33 32 30 29 27 26 25 23 23 22 21 21 22 23 23 22 21 21 21 20 20 19 19 18
39 40 41 41 42 42 42 43 44 44 45 45 45 46 47 48 49 49 50 51 52 52 52 52 52 52 52 51 51 51 50 50 49 48 48 47 46 45 44 44 43 42 41 40 40 39 38 37 36 35 35 35 35 35 35 36 36 36 35 35 35 34 32 31 29 28 28 26 24 23 21 21 21 21 22 23 23 22 21 20 20 20 20 19 19 18
40 41 41 42 42 43 43 43 44 45 45 45 46 46 47 48 49 50 50 51 51 51 51 51 51 51 51 50 49 49 49 48 48 47 46 46 45 44 43 43 42 42 41 40 39 38 37 36 36 35 35 35 35 35 35 35 35 35 35 34 34 32 31 29 28 27 27 25 23 21 20 20 20 22 23 24 23 22 20 20 20 20 20 20 19 19
41 41 42 43 43 43 43 43 44 45 45 46 46 47 48 48 49 49 50 50 51 51 50 50 50 50 50 49 48 47 46 47 46 46 45 45 45 44 43 42 42 41 40 39 39 38 37 36 35 35 34 34 34 34 35 35 34 34 34 33 32 31 29 27 26 25 25 23 21 20 19 20 21 22 24 24 23 21 20 20 20 20 20 20 19 19
41 42 42 43 44 44 44 44 44 45 46 46 47 47 48 49 49 49 49 50 50 50 49 49 49 49 49 49 48 46 45 45 45 45 44 44 43 43 42 41 41 41 40 39 38 38 37 36 35 34 34 34 34 34 34 33 33 33 32 31 30 28 27 25 24 24 23 22 20 20 19 20 21 23 24 24 22 21 20 20 20 20 20 20 19 19
42 43 43 44 44 44 44 45 45 46 46 47 47 48 48 49 49 49 49 49 49 49 48 48 48 47 47 47 46 46 44 43 43 44 43 43 42 42 41 40 40 40 39 39 38 37 36 36 35 34 34 33 33 33 33 32 31 30 30 28 27 26 25 24 23 22 22 21 20 20 20 21 22 24 24 23 22 21 20 20 20 20 20 20 20 19
43 43 44 44 44 45 45 45 45 46 46 47 48 48 48 48 48 48 48 48 48 47 47 47 47 46 45 45 45 44 43 42 42 42 42 41 41 41 40 40 39 39 39 38 37 37 36 35 34 34 33 33 32 32 32 31 30 29 28 27 26 25 25 24 23 22 22 21 21 21 21 22 24 24 24 23 21 21 20 20 20 20 20 20 20 19
44 44 44 44 45 45 45 46 46 46 47 47 48 48 48 48 48 48 48 47 47 46 46 45 45 45 44 44 44 43 42 41 41 41 41 40 40 39 39 39 38 38 38 38 37 36 36 35 34 33 33 32 32 31 31 30 29 29 28 26 26 25 25 24 24 23 22 22 22 23 23 24 25 25 24 23 21 21 21 21 21 21 21 20 20 20
45 45 45 45 45 45 46 46 46 47 47 47 48 48 48 48 47 47 47 46 46 45 45 44 44 43 43 42 42 42 41 40 40 40 40 40 39 39 38 38 38 38 37 37 37 36 35 35 34 33 33 32 32 31 30 30 29 28 27 27 26 26 25 25 24 24 24 24 24 24 25 25 26 25 24 22 21 21 21 21 21 21 21 21 20 20
45 45 45 45 45 46 46 47 47 47 48 48 47 47 47 47 46 46 46 45 44 44 44 43 43 42 42 41 41 41 40 39 39 39 39 39 39 38 37 37 37 37 37 37 36 36 35 34 34 33 32 32 31 31 30 30 29 28 27 27 26 26 25 25 25 25 25 25 25 26 26 26 26 25 24 22 21 21 21 22 21 21 21 21 20 20
45 46 46 46 46 46 47 47 48 48 48 48 47 47 47 46 45 45 45 44 44 43 43 42 42 42 41 40 40 40 39 38 38 38 38 38 38 38 37 37 36 36 36 36 36 35 35 34 33 33 32 32 31 31 30 30 29 28 28 27 26 26 26 26 26 26 26 26 26 26 27 27 26 25 23 22 21 22 22 22 22 22 21 21 21 20
46 46 46 47 47 47 48 48 48 48 48 48 47 47 46 45 44 44 43 43 43 42 42 42 41 41 40 40 39 39 38 38 38 37 38 38 38 38 37 36 36 36 36 35 35 35 34 34 33 33 32 32 31 31 30 30 29 28 28 27 27 27 26 26 26 26 27 27 27 27 27 27 26 24 22 22 22 22 22 22 22 22 22 21 21 20
46 47 47 47 48 48 48 48 48 48 48 47 46 45 45 44 43 43 42 42 41 41 41 41 41 40 40 39 39 39 38 38 37 37 37 38 38 38 37 36 36 36 35 35 34 34 34 34 33 33 32 32 32 31 30 30 29 28 28 28 27 27 27 27 27 27 27 27 27 27 28 27 26 24 22 22 22 23 23 23 23 22 22 22 21 20
47 47 48 48 48 48 48 48 48 47 47 46 45 44 43 43 42 42 42 41 41 41 41 41 40 40 40 39 39 38 38 38 37 37 37 37 37 37 37 36 36 35 35 34 34 34 33 33 33 33 32 32 32 31 30 30 29 29 28 28 28 27 27 27 28 28 28 28 28 28 28 27 25 23 22 22 23 23 23 23 23 23 22 22 21 21
48 48 48 48 48 48 48 47 47 46 45 44 44 43 42 42 42 42 42 41 41 40 40 40 40 40 40 39 39 38 38 37 37 37 37 37 37 37 37 36 36 35 35 34 33 33 33 33 33 32 32 32 32 31 30 30 29 29 28 28 28 28 28 28 28 28 28 28 28 28 27 26 24 22 22 23 23 23 23 23 23 23 23 22 22 21
48 48 48 48 48 48 47 47 46 45 44 43 43 42 41 41 41 41 42 41 41 40 40 40 40 39 39 39 39 38 38 37 37 37 37 37 37 37 37 36 36 35 34 34 33 32 32 32 32 32 32 32 32 31 30 30 29 29 28 28 28 28 28 28 28 28 28 28 28 28 26 25 23 22 22 23 23 24 24 24 24 23 23 23 22 21
49 49 48 48 48 47 46 45 45 44 43 42 42 42 41 41 41 41 41 41 41 40 40 40 39 39 39 39 39 39 38 37 37 37 37 37 37 37 36 36 36 35 34 33 33 32 32 32 32 32 32 32 32 31 31 30 29 29 29 29 29 29 29 29 29 28 28 28 27 27 25 24 23 22 23 23 24 24 24 24 24 24 23 23 22 22
49 48 48 48 47 46 45 44 43 43 42 42 41 41 41 41 41 41 41 41 41 40 40 40 39 39 39 39 39 39 39 38 37 37 37 37 37 37 36 36 35 35 34 33 33 32 32 31 32 32 32 32 32 31 31 30 30 29 29 29 29 29 29 29 28 28 28 27 26 25 24 23 23 23 23 24 24 24 24 24 24 24 24 23 23 22
48 48 47 47 46 45 44 43 43 42 42 42 41 41 41 41 41 41 41 41 41 40 40 40 39 39 39 39 39 39 39 39 38 37 37 37 37 37 36 36 35 34 34 33 32 32 31 31 31 31 31 32 31 31 31 30 30 29 29 29 29 29 29 28 28 28 27 26 25 24 23 23 23 23 24 24 25 25 25 25 25 25 24 24 23 23
48 47 46 46 45 44 43 43 42 42 42 42 42 42 42 42 42 42 42 41 41 40 40 39 39 39 39 39 39 39 39 39 39 38 38 37 37 37 36 36 35 34 33 33 32 31 31 31 31 31 31 31 31 31 31 30 30 30 29 29 29 29 28 28 27 27 26 25 24 24 23 23 23 24 24 25 25 25 25 25 25 25 25 24 24 24
47 46 45 45 44 43 43 42 42 42 42 43 43 43 43 43 43 42 42 41 41 40 40 39 39 39 39 39 39 38 39 39 39 38 38 37 37 37 36 35 35 34 33 32 32 31 30 30 30 30 30 30 30 30 30 30 30 29 29 29 29 28 28 27 26 26 25 24 24 23 23 24 24 25 25 25 25 25 25 26 26 26 25 25 25 24
45 45 44 43 43 43 43 43 43 43 43 43 43 44 44 43 43 43 42 41 41 40 40 39 39 39 39 39 38 38 38 38 38 38 38 37 37 36 36 35 35 34 33 32 31 31 30 30 30 30 30 30 30 30 30 29 29 29 29 29 28 28 27 27 26 25 24 24 23 24 24 25 25 25 26 26 26 26 26 26 26 26 26 26 25 25
44 44 43 43 43 43 43 43 44 44 44 44 44 44 44 44 44 43 42 42 41 40 40 39 39 38 38 38 38 38 38 38 37 37 37 37 37 36 36 35 34 34 33 32 31 30 30 29 29 29 29 29 29 29 29 29 29 29 28 28 28 27 27 26 25 24 24 24 24 24 25 25 26 26 26 26 26 26 26 27 27 27 26 26 26 26
44 43 43 43 43 43 44 44 45 45 45 45 45 45 45 44 44 43 42 42 41 40 40 39 39 38 38 38 38 38 37 37 37 37 36 36 36 36 35 35 34 34 33 32 31 30 30 29 29 28 28 29 29 29 29 28 28 28 28 28 27 27 26 25 24 24 24 24 24 25 26 26 27 27 27 27 27 27 27 27 27 27 27 27 27 26
43 43 44 44 44 44 45 45 45 45 45 45 45 45 45 45 44 43 42 42 41 40 40 39 39 38 38 37 37 37 37 37 37 36 36 36 35 35 35 34 34 33 32 32 31 30 29 29 28 28 28 28 28 28 28 28 28 28 27 27 27 26 26 25 24 24 24 24 25 26 27 27 28 28 28 28 28 28 28 28 28 28 28 28 27 27
43 44 44 44 45 45 45 46 46 46 46 46 46 46 45 45 44 43 42 42 41 40 39 39 38 38 38 37 37 37 37 36 36 36 35 35 35 34 34 34 33 33 32 31 31 30 29 29 28 28 27 27 27 28 28 28 27 27 27 27 26 26 25 25 24 24 24 25 26 27 28 28 28 29 29 29 28 28 28 29 29 29 29 28 28 28
44 44 45 45 46 46 46 46 46 46 46 46 46 45 45 44 44 43 42 42 41 40 39 39 38 38 37 37 37 36 36 36 35 35 35 34 34 34 33 33 33 32 31 31 30 29 29 28 28 27 27 27 27 27 27 27 27 27 27 26 26 26 25 25 24 24 25 26 27 28 29 29 29 30 30 29 29 29 29 29 29 29 29 29 29 29
45 45 45 46 46 47 47 47 47 47 46 46 46 45 45 44 44 43 42 41 41 40 39 38 38 37 37 37 36 36 36 35 35 34 34 34 33 33 33 33 32 32 31 30 30 29 28 28 27 27 27 27 26 27 27 27 27 27 26 26 26 26 26 25 25 25 25 26 27 28 29 30 30 30 31 30 30 30 30 30 30 30 30 30 30 29
46 46 46 47 47 47 47 47 47 46 46 46 45 45 44 44 43 42 42 41 40 39 39 38 37 37 37 36 36 36 35 35 34 34 34 33 33 33 32 32 32 31 31 30 29 29 28 28 27 27 26 26 26 26 26 26 26 26 27 26 26 26 26 26 25 25 26 27 28 29 30 30 31 31 31 31 31 30 30 30 30 31 31 31 31 30
46 46 47 47 47 47 47 46 46 46 45 45 45 44 44 43 42 42 41 41 40 39 38 37 37 37 36 36 36 35 35 35 34 34 34 33 33 33 32 32 32 31 31 30 30 29 28 28 27 27 26 26 26 26 26 26 26 26 26 26 26 26 26 26 26 26 26 27 28 29 30 31 31 32 32 32 32 31 31 31 31 31 32 32 32 31
46 46 46 46 46 46 46 46 46 45 45 45 44 44 43 43 42 41 41 40 39 38 38 37 37 36 36 36 36 35 35 35 34 34 34 33 33 33 32 32 32 32 31 31 30 30 29 28 28 27 26 26 26 26 26 26 26 26 26 26 26 26 26 26 26 26 26 27 28 29 30 31 31 32 32 32 32 32 32 32 32 32 32 33 33 32
46 46 46 46 46 46 46 45 45 45 44 44 44 43 43 42 41 41 40 39 38 38 37 37 37 36 36 36 36 36 35 35 35 34 34 34 33 33 33 33 32 32 32 32 31 31 30 29 29 28 27 27 26 26 26 26 26 26 26 26 26 26 26 26 27 27 27 27 28 29 29 30 31 32 33 33 33 33 33 33 33 33 33 34 34 34
45 45 45 45 45 45 45 45 45 44 44 44 43 43 42 41 41 40 39 38 38 37 37 36 36 36 36 36 36 36 36 36 35 35 35 34 34 34 33 33 33 33 33 32 32 32 31 30 30 29 29 28 28 27 27 26 26 26 26 26 26 26 27 27 27 27 27 27 28 28 29 30 31 32 32 33 33 34 34 34 34 34 34 34 35 35
45 45 45 45 45 45 45 45 44 44 43 43 43 42 41 41 40 39 38 38 37 37 36 36 36 36 37 36 36 36 36 36 36 36 35 35 35 34 34 34 34 34 33 33 33 33 32 32 31 31 30 30 29 28 28 27 27 26 26 26 26 26 27 27 28 28 28 28 28 28 29 30 31 32 32 33 33 34 34 34 34 35 35 35 36 36
45 45 45 45 45 45 44 44 44 43 43 42 42 41 41 40 39 39 38 37 37 37 36 36 36 36 37 37 37 37 37 36 36 36 35 35 35 35 35 35 34 34 34 34 34 33 33 33 32 32 31 31 30 30 29 28 28 27 27 27 26 27 27 27 28 28 28 28 28 29 29 30 31 32 32 33 33 34 35 35 35 36 36 37 37 37
45 45 45 44 44 44 44 44 43 43 42 42 41 40 40 39 39 38 38 37 37 37 36 36 37 37 37 37 37 36 36 36 36 36 35 35 35 35 35 35 35 35 35 34 34 34 34 33 33 33 32 32 31 31 30 30 29 29 28 28 27 27 27 27 28 28 28 29 29 29 29 30 31 31 32 33 34 34 35 36 36 37 37 38 38 38
45 45 45 45 44 44 44 43 43 42 41 41 40 40 39 39 38 38 38 37 37 37 37 37 37 38 38 37 37 36 36 35 35 35 35 35 35 35 35 35 35 35 35 34 34 34 34 33 33 33 33 32 32 32 31 31 30 30 30 29 29 28 28 28 28 28 29 29 29 29 30 30 31 31 32 33 34 35 36 37 37 38 38 38 39 39
45 45 45 45 45 44 44 43 42 41 41 40 39 39 39 38 38 38 38 37 37 37 37 38 38 39 39 38 37 36 35 35 35 34 34 34 34 34 34 34 34 34 34 34 34 34 34 33 33 33 33 32 32 32 32 31 31 31 31 31 30 30 30 29 29 29 29 29 30 30 30 31 31 31 32 33 34 35 36 37 38 39 39 39 39 40
45 46 46 45 45 44 44 43 42 40 40 39 39 38 38 38 38 37 37 37 38 38 39 39 40 40 39 38 37 36 35 35 34 34 34 34 34 35 35 34 34 34 34 34 34 34 34 34 34 33 33 33 32 32 32 32 32 32 32 32 32 31 31 31 31 30 30 30 30 31 31 31 32 32 33 33 34 35 37 38 39 39 40 40 40 40
Wind_Direction
286 287 287 288 288 288 288 288 288 288 289 289 289 289 290 291 291 292 293 294 294 295 295 296 297 298 299 300 301 301 302 302 303 303 304 304 304 304 305 305 306 307 308 308 309 309 309 308 307 306 305 304 304 304 305 304 303 302 301 300 300 300 300 301 302 303 304 304 305 305 305 305 305 306 308 310 309 307 303 293 278 262 252 248 247 248
286 286 287 287 287 287 287 287 287 288 288 289 289 289 290 290 291 291 292 293 294 294 295 296 297 298 299 299 300 300 301 302 302 303 303 303 304 304 305 305 306 307 308 308 308 308 308 307 306 304 303 303 303 303 303 303 302 301 300 299 299 299 299 300 301 301 302 302 303 303 303 303 302 302 302 303 304 304 302 292 276 259 250 247 247 248
286 286 286 286 286 286 286 287 287 287 288 288 289 289 290 290 290 291 292 293 294 294 295 296 297 297 298 299 299 300 300 301 301 302 302 303 303 304 304 305 306 307 307 308 308 308 307 306 304 303 302 301 302 302 302 302 301 300 299 298 298 298 298 299 300 300 301 301 301 301 301 300 299 298 296 296 298 301 300 291 274 258 249 246 246 247
285 286 286 286 286 286 286 286 287 287 287 288 288 289 289 290 290 291 292 293 294 294 295 296 297 297 298 298 299 299 299 300 300 301 302 302 303 304 304 305 306 306 307 307 307 307 306 305 303 301 300 300 300 300 300 300 299 298 297 297 297 297 297 298 299 300 300 300 300 299 298 297 295 293 292 292 295 299 298 289 273 257 248 245 245 246
285 285 285 285 285 285 285 286 286 286 287 287 288 289 289 290 291 291 292 293 293 294 295 295 296 296 297 297 298 298 299 299 300 300 301 301 302 303 304 305 305 306 306 307 306 306 305 303 302 300 299 298 298 298 299 299 298 297 296 295 295 295 296 297 299 300 300 300 300 299 297 295 292 289 288 289 293 297 296 287 271 256 247 245 245 246
284 284 284 284 284 285 285 285 286 286 287 287 288 288 289 290 290 291 292 292 293 293 294 295 295 296 296 296 297 297 298 298 299 300 300 301 302 303 304 304 305 305 306 306 306 305 304 302 301 299 297 297 296 296 297 297 296 295 295 294 294 294 295 297 298 299 300 300 299 298 296 293 290 288 287 288 292 295 293 284 269 254 246 244 244 245
284 283 283 284 284 284 285 285 285 286 287 288 288 288 289 290 290 291 291 292 292 293 293 294 294 294 295 295 296 297 297 298 298 299 300 301 301 302 303 303 304 304 305 305 305 304 303 301 300 298 296 295 295 295 295 295 295 294 293 292 292 293 294 296 298 299 299 299 298 297 296 293 291 289 287 289 292 293 290 279 265 252 245 243 244 245
283 283 283 283 284 284 284 285 285 286 287 287 288 289 289 290 290 291 291 291 291 292 292 293 293 294 294 295 295 296 297 297 298 299 299 300 301 302 302 303 303 304 304 304 304 303 302 300 299 297 295 294 293 293 293 293 293 292 292 291 291 292 294 296 297 297 297 296 296 296 297 296 294 291 289 290 292 291 286 275 261 250 244 242 243 244
283 283 283 283 283 283 284 285 285 286 286 287 288 289 289 290 290 290 290 290 291 291 292 292 293 293 293 294 295 295 296 297 297 298 299 300 301 301 302 302 303 303 303 303 303 303 301 300 298 296 294 292 292 291 291 291 291 291 291 290 291 292 294 295 296 295 294 293 294 296 298 298 295 292 290 292 292 290 282 270 257 247 242 242 243 244
282 282 282 282 283 283 283 284 285 285 286 287 287 288 289 289 290 290 290 290 290 290 291 291 292 293 293 294 294 295 296 296 297 298 299 299 300 300 301 301 302 302 302 302 302 302 301 299 297 295 293 291 290 290 290 290 290 290 290 290 290 292 293 294 294 293 291 290 291 294 297 296 294 291 291 292 291 287 279 266 253 244 241 241 242 243
281 281 281 282 282 282 283 283 284 285 286 286 287 287 288 288 289 289 290 290 290 290 290 291 291 292 292 293 294 295 295 296 297 298 298 299 299 300 300 300 301 301 301 301 301 301 300 299 297 295 293 291 290 289 289 289 289 289 289 289 290 291 292 292 291 290 288 287 288 290 292 292 290 289 289 290 289 284 275 262 250 242 240 240 241 242
280 281 281 281 281 282 282 283 284 284 285 286 286 287 287 288 288 288 289 289 290 290 290 291 291 291 292 293 294 295 295 296 297 297 298 299 299 299 300 300 300 300 300 300 300 300 300 298 297 295 293 291 290 289 289 289 289 289 289 290 290 291 291 290 289 287 286 284 283 283 285 286 286 286 287 289 288 282 271 258 246 240 239 240 241 241
280 280 281 281 281 282 282 283 284 284 284 285 285 286 286 287 287 287 288 288 289 289 290 291 291 291 292 293 294 295 295 296 297 297 298 298 298 299 299 299 299 299 299 299 299 299 299 298 297 295 293 292 290 290 289 289 289 289 289 290 291 291 290 289 287 284 282 280 279 279 280 281 282 284 287 289 287 279 267 253 243 239 239 239 240 240
280 280 280 280 281 281 282 283 283 284 284 284 285 285 285 286 286 286 287 288 288 289 290 290 291 291 292 293 294 295 295 296 296 297 297 297 297 298 298 298 298 298 298 298 298 299 298 298 297 295 294 292 291 290 290 290 290 290 290 291 291 291 290 288 284 281 279 279 278 277 277 278 280 284 288 289 285 276 263 250 241 238 238 239 238 238
279 279 280 280 280 281 282 282 283 283 283 284 284 284 285 285 286 286 287 288 288 289 290 290 291 292 292 293 294 294 295 296 296 296 297 297 297 298 298 298 298 297 297 297 297 297 297 297 297 296 295 293 292 291 291 291 291 291 291 290 290 290 289 286 282 280 279 279 278 276 275 276 280 285 288 288 283 272 259 247 240 237 238 238 237 237
279 279 279 280 280 281 281 282 282 282 283 283 284 284 284 285 286 286 287 288 288 289 290 291 291 292 293 293 294 294 295 295 295 296 296 297 297 297 298 298 297 296 296 296 296 296 296 297 296 296 295 294 293 292 292 292 291 290 289 288 288 288 287 284 281 280 279 278 276 274 273 276 281 286 288 286 279 268 255 244 239 237 237 237 236 236
278 278 279 279 280 280 281 281 282 282 282 283 283 284 284 285 286 286 287 287 288 289 290 290 291 292 292 293 294 294 295 295 295 295 296 296 297 297 297 297 296 295 295 295 294 295 295 296 296 296 295 295 294 293 293 292 291 289 287 286 286 286 285 283 280 278 277 275 273 272 273 278 283 287 287 283 275 263 251 242 238 236 236 236 235 235
278 278 278 279 279 280 281 281 281 282 282 283 283 284 284 285 285 286 287 287 288 289 289 290 291 291 292 293 293 294 294 294 294 295 295 296 297 297 297 296 295 294 293 293 293 293 294 294 295 295 295 295 295 294 294 293 291 290 288 287 287 285 283 281 279 277 275 273 272 272 275 280 285 287 286 280 270 258 247 240 237 236 236 235 234 234
277 278 278 278 279 280 280 281 281 282 282 283 283 284 284 285 285 286 287 287 288 288 289 290 290 291 292 292 293 293 294 294 294 294 295 296 296 297 297 296 295 293 292 291 291 291 292 292 293 294 294 295 295 295 294 294 293 292 291 289 287 284 281 278 276 275 274 273 272 274 278 282 286 287 283 276 265 253 244 238 236 235 235 234 234 234
277 278 278 278 279 280 280 280 281 281 282 283 283 284 284 285 285 286 286 287 288 288 289 289 290 291 292 292 292 293 293 294 294 295 295 296 296 296 296 296 294 293 292 291 290 290 290 291 291 292 293 294 294 294 294 294 294 293 291 289 285 281 278 275 274 273 273 273 274 276 280 284 286 285 280 271 260 249 241 237 235 234 234 234 234 234
277 278 278 278 279 279 280 281 281 281 282 282 283 283 284 285 285 286 286 287 287 288 289 289 290 290 291 292 292 293 293 294 295 295 296 296 296 296 296 296 294 293 291 290 289 289 289 289 290 291 292 292 293 293 293 293 292 291 290 287 283 279 275 273 272 271 272 273 275 278 281 284 285 283 276 266 254 245 238 235 234 234 234 233 233 234
277 278 278 279 279 279 280 280 281 281 281 282 282 283 284 284 285 286 286 287 287 288 289 289 290 290 291 291 291 292 293 294 295 295 296 296 296 297 297 296 295 293 291 290 289 288 287 287 288 289 290 291 291 292 292 291 291 290 288 285 282 278 274 272 270 271 272 273 275 278 281 284 284 280 272 261 249 241 236 234 234 233 233 233 233 234
277 278 278 278 279 279 279 280 280 280 281 281 282 282 283 284 285 285 286 287 287 288 289 289 289 290 290 290 291 291 292 293 294 295 296 296 297 297 297 296 295 293 292 290 289 287 287 286 287 287 288 289 289 290 290 290 289 288 287 284 281 278 274 272 271 271 272 274 276 279 281 283 281 276 267 255 245 238 235 234 233 233 233 233 233 233
277 277 278 278 278 278 279 279 280 280 281 281 281 282 283 283 284 285 286 286 287 287 288 288 289 289 289 290 290 291 292 293 294 295 296 296 297 297 297 297 296 294 293 291 289 287 286 285 285 286 286 287 287 288 288 288 288 287 286 284 281 278 275 273 272 272 273 275 277 279 281 281 278 271 261 250 241 236 233 233 233 233 233 233 233 233
276 277 277 277 278 278 279 279 279 280 280 281 281 282 282 283 284 285 285 286 286 287 288 288 288 289 289 290 290 291 292 293 294 295 295 296 296 297 297 296 296 295 293 291 289 287 286 285 284 284 284 285 285 286 287 287 287 286 285 283 281 278 276 274 274 274 274 276 278 279 279 278 273 266 255 244 237 234 233 233 233 233 232 232 233 233
276 277 277 277 278 278 279 279 279 279 280 280 281 281 282 283 284 285 285 286 286 287 287 288 288 288 289 289 290 291 291 293 293 294 295 295 296 296 296 296 296 295 294 292 290 287 286 284 283 282 282 283 283 284 285 285 286 285 284 283 281 279 277 276 275 275 276 277 278 278 276 273 268 259 249 240 235 233 232 232 232 232 232 232 233 234
276 277 277 278 278 278 278 278 279 279 279 280 281 281 282 283 284 285 285 285 286 286 286 287 287 288 289 289 290 290 291 292 293 294 294 294 295 295 295 296 295 295 294 293 291 288 286 284 282 281 281 281 282 282 283 284 285 285 284 283 281 279 278 277 276 276 277 277 277 275 273 269 262 252 243 236 233 232 232 232 232 232 232 233 233 234
277 277 277 277 278 278 278 278 278 278 279 280 280 281 282 283 284 284 284 285 285 286 286 286 286 287 288 289 290 290 291 291 292 293 294 294 294 294 295 295 295 295 295 293 292 289 287 284 283 281 280 280 281 281 282 283 284 284 283 282 281 279 278 277 277 277 277 276 275 273 269 263 255 246 238 234 232 231 232 232 232 232 232 233 233 234
276 277 277 277 277 277 277 277 277 278 279 279 280 281 282 283 283 284 284 284 285 285 285 285 286 287 288 289 289 290 290 291 291 292 292 292 293 293 294 294 294 295 295 294 293 291 288 286 283 282 281 280 280 281 281 282 283 283 282 282 280 279 278 277 277 276 276 275 273 269 264 257 249 241 235 232 231 232 232 232 232 233 233 233 234 235
276 276 276 276 276 276 276 276 276 277 278 279 280 281 282 283 283 283 283 284 284 284 285 285 286 287 287 288 289 290 290 290 290 291 291 291 292 292 293 293 294 294 295 294 293 292 289 287 285 283 281 280 280 280 280 281 281 281 281 280 280 278 277 277 276 276 275 273 269 265 259 251 244 237 233 231 231 232 232 233 233 233 233 234 234 236
275 275 275 275 275 275 275 275 276 277 278 279 280 281 282 282 283 283 283 283 284 284 284 285 285 286 287 288 288 289 290 290 290 290 290 290 290 291 292 292 293 293 294 294 294 293 291 289 286 284 282 281 280 280 280 280 280 280 280 280 279 278 277 276 275 275 273 270 266 260 253 246 239 235 232 232 232 232 233 233 233 233 233 234 235 236
275 275 274 274 274 274 275 275 276 276 277 278 279 280 281 281 282 283 283 283 283 283 283 284 284 285 286 287 287 288 288 289 289 289 289 289 289 290 290 291 292 292 293 293 293 293 292 290 287 285 283 281 280 280 279 279 279 279 279 279 278 277 277 276 274 273 270 267 261 255 248 241 236 233 232 232 232 233 233 233 234 234 234 235 236 237
274 274 274 274 274 274 275 275 275 276 277 277 278 279 280 281 281 282 282 282 282 282 282 283 283 284 285 285 286 286 287 287 288 288 288 288 288 288 289 289 290 291 292 292 293 292 292 291 289 286 284 282 281 280 279 279 279 279 278 278 278 277 276 274 273 271 268 263 257 251 244 239 235 233 233 233 233 233 234 234 234 234 235 235 236 237
274 274 274 274 274 275 275 275 276 276 276 277 278 279 279 280 281 281 282 282 281 281 281 282 282 283 284 284 285 285 285 286 286 287 287 287 287 287 288 288 289 290 290 291 292 292 292 291 289 287 286 283 282 280 279 279 279 278 278 277 277 276 274 273 271 269 265 260 253 247 242 238 235 234 234 234 234 234 234 235 235 235 235 236 237 238
273 274 274 274 274 275 275 275 276 276 276 277 278 278 279 280 281 281 281 281 281 281 281 281 281 282 282 283 284 284 285 285 285 285 285 286 286 286 286 287 287 288 289 290 291 291 291 291 289 288 286 284 283 281 280 279 278 278 277 276 275 274 273 271 269 266 262 256 250 245 241 238 236 235 235 235 235 235 235 235 236 236 236 237 237 238
273 273 273 274 274 274 275 275 275 276 276 277 278 278 279 280 281 281 281 281 281 280 280 280 280 281 281 282 283 283 284 284 285 285 285 285 285 285 285 285 286 287 287 288 289 290 291 291 290 288 287 285 284 282 281 279 278 277 276 275 274 273 271 269 266 263 259 254 249 244 241 239 238 237 237 237 236 236 236 236 236 237 237 237 238 239
273 273 273 274 274 274 275 275 275 276 277 277 278 279 279 280 280 281 281 280 280 280 279 279 280 280 280 281 282 282 283 284 284 284 284 284 284 284 284 284 285 285 286 287 288 289 290 290 290 289 288 286 285 283 281 280 278 277 276 274 273 271 269 267 264 260 256 252 248 244 241 240 239 239 239 238 238 237 237 237 237 238 238 238 239 240
273 273 273 274 274 274 274 275 276 276 277 278 278 279 280 280 280 280 280 280 279 279 279 278 279 279 280 280 281 282 283 283 283 283 283 283 283 283 283 283 283 284 285 286 287 288 288 289 289 289 288 287 285 284 282 280 279 277 275 274 272 270 268 265 262 259 255 251 248 245 243 241 241 241 240 240 239 239 238 239 239 239 239 239 240 241
273 273 273 274 274 274 275 275 276 277 277 278 278 279 279 279 280 280 279 279 278 278 278 278 278 278 279 280 281 281 282 282 283 283 282 282 282 281 281 282 282 282 283 284 285 286 287 287 288 288 288 287 286 284 283 281 279 277 275 273 271 269 266 264 260 257 254 251 249 246 244 243 243 242 242 241 241 240 240 240 240 240 240 240 241 241
274 274 274 274 275 275 275 276 276 277 277 278 278 279 279 279 279 279 278 278 277 277 277 277 277 277 278 279 280 281 281 281 282 281 281 281 281 281 280 281 281 281 282 282 283 284 285 286 286 286 286 286 285 284 282 281 279 277 275 272 270 268 266 263 259 256 254 252 250 248 246 245 244 244 244 243 242 242 241 241 242 242 242 242 242 242
274 274 274 275 275 275 276 276 277 277 278 278 278 278 278 278 278 278 277 277 276 276 276 276 276 277 277 278 279 279 280 280 280 280 280 280 280 279 279 279 280 280 280 281 281 282 283 284 284 284 285 284 284 283 282 280 279 277 275 272 270 268 265 262 259 256 254 252 251 249 248 247 246 246 245 245 244 243 243 243 243 243 243 243 243 243
275 275 275 275 276 276 276 277 277 277 277 278 278 278 278 278 277 277 276 276 275 275 275 275 275 276 276 277 277 278 278 278 278 278 278 278 278 278 278 278 278 279 279 279 280 280 281 281 282 282 283 283 282 281 280 279 278 276 274 272 270 267 265 262 259 256 254 252 252 251 250 249 248 248 247 246 245 244 244 244 244 244 244 244 244 244
275 275 276 276 276 276 277 277 277 277 277 278 278 277 277 277 276 276 275 275 275 274 274 274 274 275 275 276 276 276 276 276 277 277 277 277 277 277 277 277 277 277 277 278 278 278 279 279 280 280 281 281 280 280 279 278 277 276 274 272 270 267 265 263 260 257 255 253 252 252 251 251 250 249 248 247 246 246 245 245 245 245 245 245 245 245
275 275 276 276 276 276 277 277 277 277 277 277 277 277 277 276 276 275 274 274 273 273 273 273 273 274 274 275 275 275 275 275 275 275 275 275 275 275 276 276 276 276 276 276 277 277 277 277 278 278 278 278 278 278 278 277 276 275 274 272 270 267 265 263 261 259 256 255 253 253 252 252 251 251 250 249 248 247 246 246 246 246 246 246 245 245
275 276 276 276 276 277 277 277 277 277 277 277 277 276 276 275 275 274 273 272 272 272 272 272 273 273 273 274 274 274 274 274 274 273 273 274 274 274 274 275 275 275 275 275 276 276 276 276 276 276 276 276 276 276 276 276 276 275 274 272 270 268 266 264 262 260 258 256 255 254 254 254 253 252 251 250 249 248 247 247 247 247 247 247 246 246
275 276 276 276 277 277 277 277 277 277 277 277 276 276 275 275 274 273 272 271 271 271 271 271 272 272 273 273 274 274 274 273 273 272 272 272 273 273 273 274 274 274 274 275 275 275 275 275 275 274 274 274 274 274 274 274 275 274 273 272 270 269 267 265 263 261 259 257 256 256 255 255 255 254 253 252 250 249 248 248 248 248 248 248 247 246
275 276 276 276 277 277 277 277 277 277 277 277 276 275 275 274 273 272 271 271 270 270 271 271 271 272 273 273 273 273 273 273 272 272 272 272 272 272 272 273 273 273 274 274 274 275 275 274 274 274 273 273 272 272 272 273 273 273 273 272 271 269 267 265 264 262 260 259 258 257 257 257 256 255 254 253 252 251 250 249 249 249 249 249 248 247
275 276 276 276 276 277 277 277 277 277 276 276 276 275 274 273 272 272 271 270 270 270 270 271 272 272 273 273 273 273 272 272 272 272 272 271 271 271 272 272 273 273 274 274 274 275 275 275 275 274 273 273 272 271 271 271 271 271 271 271 270 269 268 266 265 264 262 260 259 258 257 257 257 257 256 255 254 253 252 251 250 250 250 250 250 249
275 275 276 276 276 276 276 276 276 276 276 275 275 274 274 273 272 271 270 270 270 270 270 271 272 273 273 273 272 272 272 272 272 272 272 272 272 272 272 272 272 273 273 274 274 275 275 275 275 275 274 274 273 272 271 271 270 270 270 269 269 268 268 267 266 265 264 262 261 260 259 258 258 257 257 256 255 254 253 252 252 252 251 251 251 250
275 275 275 275 275 275 275 275 275 275 275 275 274 274 273 272 271 270 270 269 270 270 271 272 273 273 273 272 271 271 270 271 271 272 272 272 272 272 272 272 272 272 273 273 273 274 274 274 274 274 274 274 274 273 272 271 270 269 269 268 268 267 267 266 266 265 264 263 262 261 260 259 258 257 257 257 256 255 254 254 253 253 253 253 252 252
274 275 275 275 275 275 275 275 274 274 274 274 274 273 273 272 271 270 269 269 270 270 271 272 273 273 272 271 270 269 269 270 271 272 272 272 273 273 273 272 272 272 272 272 273 273 273 273 273 273 273 273 273 273 272 271 270 269 268 267 267 267 266 266 265 264 264 263 262 261 261 260 259 258 257 257 257 256 256 255 255 255 254 254 254 254
Height
5751 5750 5749 5748 5747 5747 5746 5745 5745 5744 5743 5742 5742 5741 5740 5739 5737 5736 5735 5734 5733 5733 5732 5731 5731 5729 5728 5727 5725 5724 5722 5720 5718 5717 5715 5713 5711 5709 5708 5706 5704 5703 5702 5701 5699 5698 5697 5696 5695 5693 5692 5691 5691 5690 5689 5688 5687 5686 5686 5685 5684 5684 5683 5683 5682 5682 5681 5680 5680 5679 5678 5678 5677 5677 5676 5675 5675 5674 5673 5672 5672 5672 5672 5673 5673 5674
5748 5747 5747 5746 5745 5744 5743 5742 5742 5741 5740 5739 5738 5738 5737 5736 5735 5734 5732 5732 5731 5730 5729 5728 5727 5727 5725 5724 5722 5721 5719 5717 5716 5714 5712 5710 5708 5706 5705 5703 5702 5700 5699 5698 5697 5696 5695 5693 5692 5691 5690 5689 5688 5687 5687 5686 5685 5684 5683 5683 5682 5682 5681 5681 5681 5680 5679 5678 5678 5677 5677 5676 5675 5675 5674 5674 5673 5673 5672 5672 5671 5671 5672 5672 5672 5672
5746 5745 5744 5743 5742 5741 5740 5739 5739 5738 5737 5736 5735 5735 5734 5733 5732 5731 5730 5729 5728 5727 5726 5726 5725 5724 5722 5721 5720 5718 5717 5715 5713 5711 5709 5707 5705 5703 5702 5700 5698 5697 5696 5695 5694 5693 5692 5691 5690 5689 5688 5687 5686 5686 5685 5684 5683 5682 5682 5681 5681 5680 5679 5679 5678 5678 5677 5677 5676 5675 5675 5674 5673 5673 5672 5672 5672 5672 5671 5670 5670 5670 5670 5671 5671 5672
5743 5742 5741 5740 5739 5738 5737 5737 5736 5735 5734 5733 5732 5732 5731 5730 5729 5728 5727 5726 5725 5724 5723 5723 5722 5721 5719 5718 5717 5715 5713 5712 5710 5708 5706 5704 5702 5700 5698 5697 5696 5694 5693 5692 5691 5691 5690 5689 5688 5687 5686 5685 5684 5683 5683 5682 5681 5680 5680 5679 5678 5678 5677 5677 5677 5676 5675 5674 5673 5673 5672 5672 5671 5671 5671 5670 5670 5670 5669 5669 5669 5669 5669 5670 5670 5670
5740 5739 5738 5737 5736 5735 5734 5734 5733 5732 5731 5730 5730 5729 5728 5727 5726 5725 5724 5723 5722 5721 5720 5720 5719 5717 5716 5715 5713 5712 5710 5709 5707 5705 5704 5702 5700 5698 5696 5694 5693 5692 5691 5690 5689 5688 5687 5686 5685 5685 5684 5683 5682 5682 5681 5680 5679 5678 5677 5677 5677 5676 5676 5675 5674 5674 5673 5672 5671 5670 5670 5669 5669 5668 5668 5668 5668 5668 5668 5667 5667 5667 5668 5668 5669 5669
5737 5736 5735 5734 5733 5732 5732 5731 5730 5729 5728 5727 5727 5726 5725 5724 5723 5722 5722 5721 5720 5719 5717 5717 5716 5715 5713 5712 5710 5709 5707 5706 5704 5702 5701 5699 5697 5695 5694 5692 5691 5689 5688 5687 5686 5685 5684 5683 5683 5682 5681 5681 5680 5679 5678 5678 5677 5676 5676 5675 5674 5674 5673 5673 5672 5672 5671 5670 5669 5668 5667 5667 5667 5666 5666 5667 5667 5667 5666 5666 5666 5666 5667 5667 5667 5668
5733 5733 5732 5731 5730 5729 5729 5728 5727 5726 5726 5725 5724 5723 5722 5722 5721 5720 5719 5718 5717 5716 5715 5714 5712 5712 5710 5709 5707 5705 5704 5702 5701 5699 5697 5696 5694 5693 5691 5690 5688 5687 5686 5685 5684 5683 5682 5681 5680 5680 5679 5678 5677 5677 5676 5676 5675 5674 5673 5673 5672 5672 5672 5671 5670 5669 5668 5667 5667 5666 5665 5665 5664 5664 5664 5665 5665 5665 5664 5664 5664 5665 5665 5666 5666 5667
5730 5730 5729 5729 5728 5727 5726 5725 5724 5723 5723 5722 5721 5721 5720 5719 5718 5717 5716 5715 5714 5713 5712 5710 5709 5708 5707 5706 5704 5702 5701 5699 5697 5696 5694 5693 5692 5690 5689 5687 5686 5685 5683 5682 5681 5680 5679 5678 5678 5677 5677 5676 5675 5675 5674 5673 5673 5672 5672 5671 5670 5670 5669 5669 5668 5667 5667 5666 5665 5664 5663 5663 5663 5662 5663 5663 5663 5663 5663 5662 5662 5663 5663 5664 5665 5665
5727 5727 5726 5726 5725 5724 5723 5722 5721 5721 5720 5719 5718 5718 5717 5716 5715 5713 5712 5712 5711 5710 5709 5707 5706 5704 5703 5702 5701 5699 5698 5696 5694 5693 5692 5690 5689 5687 5686 5684 5683 5682 5681 5680 5679 5678 5677 5676 5675 5675 5674 5673 5673 5672 5672 5671 5671 5670 5669 5669 5668 5667 5667 5667 5666 5665 5664 5664 5663 5662 5662 5661 5661 5661 5661 5661 5661 5661 5661 5661 5661 5661 5662 5662 5663 5664
5724 5724 5723 5722 5722 5722 5721 5719 5718 5717 5717 5716 5715 5715 5714 5713 5712 5710 5709 5708 5707 5707 5706 5704 5703 5701 5700 5698 5697 5696 5695 5693 5691 5690 5689 5687 5686 5685 5683 5682 5681 5680 5678 5677 5677 5676 5675 5674 5673 5672 5672 5671 5670 5670 5669 5669 5668 5667 5667 5666 5666 5665 5665 5664 5664 5663 5662 5662 5661 5660 5660 5660 5659 5659 5659 5659 5660 5659 5659 5659 5659 5660 5660 5661 5662 5662
5721 5721 5720 5719 5719 5718 5718 5717 5716 5715 5714 5713 5712 5711 5711 5710 5709 5707 5706 5704 5703 5702 5702 5701 5700 5698 5697 5695 5693 5692 5691 5689 5688 5687 5686 5685 5683 5682 5681 5679 5678 5677 5676 5675 5674 5673 5672 5671 5670 5670 5669 5668 5668 5667 5667 5666 5666 5665 5664 5664 5663 5663 5662 5662 5661 5661 5660 5659 5659 5658 5658 5658 5658 5658 5657 5658 5658 5657 5657 5657 5657 5658 5659 5659 5660 5661
5717 5717 5717 5716 5716 5715 5714 5713 5712 5712 5711 5710 5709 5708 5707 5706 5706 5705 5703 5701 5699 5698 5698 5697 5696 5695 5694 5692 5691 5689 5687 5686 5685 5684 5682 5681 5680 5679 5678 5677 5675 5674 5674 5672 5672 5671 5670 5669 5668 5667 5667 5666 5665 5665 5664 5663 5663 5662 5662 5662 5661 5660 5660 5659 5659 5658 5657 5657 5657 5657 5657 5656 5656 5656 5656 5656 5656 5656 5656 5656 5656 5657 5657 5658 5659 5659
5714 5714 5713 5713 5712 5712 5711 5710 5709 5708 5708 5707 5706 5705 5703 5702 5702 5701 5700 5698 5696 5695 5694 5693 5692 5691 5690 5689 5688 5686 5684 5683 5682 5681 5680 5678 5677 5676 5675 5674 5672 5672 5671 5670 5669 5668 5667 5667 5666 5665 5664 5663 5662 5662 5661 5661 5660 5660 5659 5659 5658 5658 5657 5657 5656 5656 5655 5655 5655 5655 5654 5654 5654 5654 5654 5654 5654 5654 5654 5654 5654 5655 5656 5657 5657 5658
5711 5710 5710 5709 5708 5708 5707 5707 5706 5704 5704 5703 5703 5702 5701 5699 5698 5697 5696 5694 5693 5692 5691 5689 5688 5687 5686 5685 5684 5683 5681 5680 5678 5677 5677 5675 5674 5673 5673 5671 5670 5669 5668 5667 5666 5665 5665 5664 5663 5662 5662 5661 5660 5659 5659 5658 5658 5657 5657 5656 5656 5655 5655 5654 5654 5653 5653 5653 5653 5652 5652 5652 5652 5652 5652 5652 5652 5652 5652 5652 5652 5653 5654 5655 5656 5657
5707 5707 5706 5705 5704 5704 5704 5703 5702 5701 5700 5700 5699 5698 5697 5696 5694 5693 5692 5691 5689 5688 5687 5686 5684 5683 5682 5682 5681 5680 5678 5677 5675 5674 5673 5672 5671 5671 5670 5668 5667 5666 5666 5665 5664 5663 5662 5662 5661 5660 5659 5658 5657 5657 5656 5656 5655 5655 5654 5654 5653 5652 5652 5652 5652 5651 5651 5651 5651 5651 5651 5651 5651 5651 5650 5650 5650 5650 5650 5651 5651 5652 5652 5653 5654 5655
5703 5703 5702 5701 5700 5700 5700 5699 5698 5697 5696 5696 5695 5694 5693 5692 5691 5690 5689 5687 5686 5685 5684 5682 5681 5679 5678 5677 5677 5677 5676 5674 5672 5671 5671 5670 5668 5667 5667 5666 5664 5663 5662 5662 5661 5660 5660 5659 5658 5657 5657 5656 5655 5654 5654 5653 5653 5652 5652 5652 5651 5650 5650 5650 5649 5649 5649 5649 5649 5649 5649 5649 5649 5649 5648 5648 5648 5648 5648 5649 5649 5650 5651 5652 5653 5653
5699 5699 5698 5697 5697 5696 5696 5696 5695 5694 5693 5692 5691 5690 5689 5688 5687 5686 5685 5684 5682 5681 5680 5679 5678 5677 5675 5674 5673 5673 5673 5672 5670 5668 5668 5667 5666 5665 5664 5663 5662 5660 5660 5659 5658 5657 5657 5656 5656 5655 5654 5653 5653 5652 5651 5651 5651 5650 5650 5649 5648 5648 5648 5647 5647 5647 5647 5647 5647 5647 5647 5647 5647 5647 5647 5646 5646 5646 5647 5647 5648 5649 5649 5650 5651 5652
5695 5695 5695 5694 5693 5692 5692 5691 5691 5690 5689 5688 5687 5686 5685 5684 5683 5682 5681 5680 5679 5678 5677 5675 5674 5673 5672 5671 5670 5670 5670 5669 5667 5666 5665 5664 5663 5662 5661 5660 5659 5658 5657 5656 5656 5655 5654 5654 5653 5652 5652 5651 5650 5650 5649 5648 5648 5647 5647 5646 5646 5646 5646 5646 5646 5645 5645 5645 5645 5645 5645 5645 5645 5645 5645 5644 5644 5645 5645 5646 5646 5647 5648 5649 5650 5650
5692 5691 5691 5690 5689 5688 5688 5687 5687 5686 5685 5684 5683 5682 5681 5680 5679 5678 5677 5677 5676 5675 5673 5672 5671 5670 5669 5668 5667 5666 5667 5666 5665 5663 5662 5662 5661 5659 5658 5657 5656 5655 5654 5653 5653 5652 5652 5651 5651 5650 5649 5649 5648 5647 5647 5646 5645 5645 5644 5644 5644 5644 5644 5644 5644 5644 5643 5643 5643 5643 5643 5643 5643 5643 5642 5642 5642 5643 5643 5644 5645 5646 5646 5647 5648 5649
5687 5687 5687 5686 5685 5684 5683 5683 5682 5682 5681 5680 5679 5678 5677 5676 5676 5675 5674 5673 5672 5671 5670 5669 5668 5667 5667 5666 5664 5663 5663 5663 5662 5661 5659 5659 5658 5657 5656 5655 5653 5652 5651 5651 5650 5650 5649 5648 5648 5647 5647 5646 5646 5645 5644 5644 5643 5642 5642 5642 5642 5642 5642 5642 5642 5642 5642 5642 5642 5642 5642 5641 5641 5641 5641 5641 5641 5641 5642 5642 5643 5644 5645 5646 5647 5647
5683 5682 5682 5682 5682 5681 5679 5679 5678 5677 5677 5676 5675 5674 5673 5672 5672 5671 5670 5670 5669 5668 5667 5666 5665 5664 5664 5663 5662 5660 5660 5660 5659 5658 5656 5656 5655 5654 5653 5652 5651 5650 5649 5648 5647 5647 5647 5646 5645 5645 5644 5644 5643 5643 5642 5642 5641 5640 5640 5640 5639 5639 5639 5640 5640 5640 5640 5640 5639 5639 5639 5639 5639 5639 5639 5639 5639 5639 5640 5641 5642 5642 5643 5644 5645 5646
5679 5678 5678 5677 5677 5677 5676 5675 5674 5673 5672 5672 5671 5670 5669 5669 5668 5667 5666 5666 5665 5664 5664 5663 5662 5661 5661 5660 5659 5657 5657 5657 5656 5655 5653 5652 5651 5650 5650 5649 5648 5647 5646 5645 5644 5644 5644 5643 5643 5642 5642 5642 5641 5640 5640 5639 5639 5638 5638 5637 5637 5637 5637 5637 5637 5637 5637 5637 5637 5637 5637 5637 5637 5637 5637 5637 5637 5637 5638 5639 5640 5641 5642 5642 5643 5644
5675 5675 5674 5673 5672 5672 5671 5671 5670 5669 5668 5668 5667 5667 5666 5665 5665 5664 5663 5662 5662 5661 5660 5660 5659 5658 5657 5657 5656 5655 5654 5654 5653 5652 5651 5649 5648 5647 5647 5646 5645 5644 5643 5642 5642 5641 5641 5640 5640 5640 5639 5639 5638 5638 5637 5637 5637 5636 5636 5636 5635 5635 5635 5635 5635 5635 5635 5635 5635 5635 5635 5635 5635 5634 5634 5635 5635 5636 5637 5637 5638 5639 5640 5641 5642 5642
5671 5671 5670 5669 5668 5668 5667 5666 5666 5665 5664 5664 5663 5662 5662 5662 5661 5660 5660 5659 5658 5658 5657 5656 5656 5655 5654 5654 5653 5652 5651 5651 5650 5649 5648 5647 5645 5645 5644 5643 5642 5642 5641 5640 5639 5638 5638 5637 5637 5637 5637 5636 5636 5635 5635 5635 5634 5634 5634 5633 5633 5633 5633 5633 5633 5633 5633 5633 5632 5632 5632 5632 5632 5632 5632 5633 5633 5634 5635 5636 5637 5637 5638 5639 5640 5641
5667 5667 5666 5665 5664 5663 5663 5662 5662 5661 5661 5660 5660 5659 5658 5658 5657 5657 5656 5656 5655 5655 5654 5653 5652 5652 5651 5651 5650 5649 5648 5648 5647 5647 5646 5644 5643 5642 5641 5641 5640 5639 5638 5637 5637 5636 5635 5635 5635 5634 5634 5633 5633 5633 5632 5632 5632 5632 5631 5631 5631 5631 5631 5631 5630 5630 5630 5630 5630 5630 5630 5630 5630 5630 5630 5631 5632 5632 5633 5634 5635 5636 5637 5637 5638 5639
5663 5662 5662 5661 5660 5659 5659 5658 5658 5657 5657 5657 5656 5656 5655 5655 5654 5653 5653 5652 5652 5652 5652 5650 5649 5648 5648 5648 5647 5647 5646 5645 5644 5643 5643 5642 5640 5639 5638 5638 5637 5636 5636 5635 5634 5633 5633 5632 5632 5632 5631 5631 5631 5630 5630 5630 5629 5629 5629 5629 5628 5628 5628 5628 5628 5628 5628 5628 5628 5627 5627 5627 5627 5628 5628 5629 5630 5631 5632 5632 5633 5634 5635 5636 5637 5637
5658 5658 5657 5657 5656 5656 5655 5654 5654 5653 5653 5653 5652 5652 5652 5652 5651 5651 5650 5650 5650 5649 5648 5647 5646 5645 5645 5644 5644 5643 5643 5642 5641 5641 5640 5639 5638 5637 5636 5635 5634 5634 5633 5632 5632 5631 5630 5630 5629 5629 5628 5628 5628 5627 5627 5627 5627 5627 5627 5626 5626 5626 5626 5626 5625 5625 5625 5625 5625 5625 5625 5625 5625 5626 5626 5627 5628 5629 5630 5631 5631 5632 5633 5634 5635 5635
5654 5654 5653 5653 5652 5652 5651 5651 5650 5650 5650 5649 5649 5649 5649 5649 5648 5647 5647 5646 5647 5646 5645 5644 5643 5642 5642 5641 5640 5640 5640 5639 5638 5637 5637 5636 5635 5634 5633 5632 5632 5631 5631 5630 5629 5628 5627 5627 5626 5626 5625 5625 5625 5625 5625 5625 5624 5624 5624 5624 5623 5623 5623 5623 5623 5623 5623 5623 5623 5622 5622 5623 5623 5623 5624 5625 5626 5627 5628 5629 5630 5630 5631 5632 5633 5633
5650 5650 5649 5649 5648 5648 5647 5647 5647 5647 5646 5646 5646 5645 5645 5645 5645 5645 5643 5643 5643 5642 5642 5641 5640 5639 5638 5637 5637 5637 5636 5636 5636 5635 5634 5633 5632 5631 5631 5630 5629 5628 5628 5627 5626 5626 5625 5624 5623 5623 5622 5622 5622 5622 5622 5622 5622 5622 5621 5621 5621 5621 5621 5620 5620 5620 5620 5620 5620 5620 5620 5620 5621 5622 5622 5623 5624 5625 5626 5627 5628 5628 5629 5630 5631 5632
5646 5646 5645 5645 5644 5644 5644 5644 5643 5643 5643 5643 5642 5642 5642 5642 5642 5641 5640 5640 5640 5639 5638 5637 5637 5636 5636 5635 5634 5633 5632 5632 5632 5632 5631 5630 5629 5628 5628 5627 5627 5626 5626 5625 5623 5623 5622 5622 5621 5620 5620 5619 5619 5619 5619 5619 5619 5619 5619 5618 5618 5618 5618 5618 5618 5618 5618 5618 5618 5618 5618 5618 5619 5619 5620 5621 5622 5623 5624 5625 5626 5627 5627 5628 5629 5630
5642 5642 5642 5641 5641 5641 5641 5640 5640 5640 5640 5639 5639 5639 5638 5638 5638 5637 5637 5637 5636 5636 5635 5634 5633 5633 5632 5632 5631 5630 5629 5629 5629 5629 5628 5627 5627 5626 5626 5625 5624 5623 5623 5622 5621 5620 5619 5619 5618 5618 5617 5617 5617 5617 5617 5617 5616 5616 5616 5616 5616 5616 5616 5616 5615 5615 5615 5615 5615 5615 5616 5616 5617 5617 5618 5619 5620 5621 5622 5623 5624 5624 5625 5626 5627 5627
5638 5638 5638 5637 5637 5637 5637 5637 5637 5637 5637 5636 5636 5636 5635 5635 5635 5634 5634 5633 5633 5632 5632 5631 5631 5630 5629 5629 5628 5627 5626 5626 5625 5625 5625 5625 5624 5623 5623 5622 5621 5621 5620 5620 5619 5618 5617 5616 5616 5615 5614 5614 5614 5614 5614 5614 5614 5613 5613 5613 5613 5613 5613 5613 5613 5613 5613 5613 5613 5613 5614 5614 5615 5616 5617 5617 5618 5619 5620 5621 5622 5622 5623 5624 5625 5626
5635 5634 5634 5634 5634 5634 5633 5633 5633 5633 5633 5633 5632 5632 5632 5632 5631 5631 5630 5630 5629 5629 5629 5628 5627 5627 5626 5626 5625 5624 5624 5623 5622 5622 5622 5621 5621 5620 5620 5619 5619 5618 5617 5617 5616 5616 5615 5614 5613 5612 5612 5612 5611 5611 5611 5611 5611 5611 5611 5611 5611 5611 5611 5611 5611 5611 5611 5611 5611 5611 5612 5612 5613 5614 5614 5615 5616 5617 5618 5619 5619 5620 5621 5622 5622 5623
5631 5631 5631 5630 5630 5630 5630 5630 5630 5630 5629 5629 5629 5628 5628 5628 5627 5627 5627 5626 5626 5625 5625 5625 5624 5624 5623 5622 5622 5621 5621 5620 5619 5619 5618 5618 5618 5617 5617 5617 5616 5615 5615 5614 5614 5613 5612 5612 5611 5610 5609 5609 5609 5608 5608 5608 5608 5608 5608 5608 5608 5608 5608 5608 5608 5608 5608 5608 5609 5609 5610 5610 5611 5612 5612 5613 5614 5615 5616 5617 5617 5618 5619 5620 5620 5621
5628 5627 5627 5627 5627 5627 5627 5626 5626 5626 5626 5626 5625 5625 5625 5624 5624 5623 5623 5622 5622 5622 5621 5621 5621 5620 5620 5619 5618 5618 5617 5617 5616 5616 5615 5615 5615 5614 5614 5614 5613 5613 5612 5611 5611 5610 5610 5609 5608 5607 5607 5606 5606 5606 5606 5606 5606 5606 5606 5606 5606 5606 5606 5606 5606 5606 5606 5606 5607 5607 5608 5608 5609 5610 5610 5611 5612 5613 5613 5614 5615 5616 5617 5617 5618 5619
5625 5624 5624 5624 5624 5623 5623 5622 5622 5622 5622 5622 5622 5621 5621 5620 5620 5620 5619 5619 5618 5618 5618 5617 5617 5617 5616 5616 5615 5615 5614 5613 5613 5613 5612 5612 5612 5611 5611 5611 5610 5610 5609 5608 5608 5608 5607 5606 5606 5605 5605 5604 5603 5603 5603 5603 5603 5603 5603 5603 5603 5603 5603 5603 5603 5604 5604 5604 5604 5605 5606 5606 5607 5608 5608 5609 5610 5611 5611 5612 5613 5613 5614 5615 5616 5617
5621 5621 5621 5620 5620 5620 5619 5619 5619 5618 5618 5618 5618 5617 5617 5617 5616 5616 5616 5615 5615 5614 5614 5614 5613 5613 5613 5612 5612 5612 5611 5610 5610 5610 5609 5609 5608 5608 5608 5607 5607 5607 5606 5606 5605 5605 5604 5604 5603 5602 5602 5602 5601 5601 5601 5601 5601 5601 5601 5601 5601 5601 5601 5601 5601 5602 5602 5602 5602 5603 5603 5604 5605 5606 5606 5607 5608 5608 5609 5610 5611 5611 5612 5613 5614 5614
5618 5617 5617 5617 5616 5616 5616 5615 5615 5615 5614 5614 5614 5613 5613 5613 5612 5612 5612 5612 5611 5611 5611 5610 5610 5609 5609 5609 5608 5608 5608 5607 5607 5607 5606 5606 5605 5605 5605 5604 5604 5604 5603 5603 5603 5602 5602 5601 5600 5600 5599 5599 5599 5598 5598 5598 5598 5598 5598 5598 5598 5598 5598 5598 5599 5599 5599 5600 5600 5601 5601 5602 5602 5603 5604 5605 5605 5606 5607 5607 5608 5609 5610 5611 5612 5612
5614 5614 5613 5613 5612 5612 5612 5612 5611 5611 5611 5610 5610 5610 5609 5609 5609 5608 5608 5608 5607 5607 5607 5607 5606 5606 5606 5605 5605 5605 5604 5604 5604 5603 5603 5602 5602 5602 5602 5601 5601 5601 5600 5600 5600 5600 5599 5598 5598 5597 5597 5597 5596 5596 5596 5596 5596 5596 5596 5596 5596 5596 5596 5596 5597 5597 5597 5597 5598 5598 5599 5600 5600 5601 5602 5602 5603 5604 5604 5605 5606 5607 5607 5608 5609 5610
5610 5610 5610 5609 5608 5608 5608 5607 5607 5607 5607 5606 5606 5606 5606 5605 5605 5605 5604 5604 5604 5604 5603 5603 5603 5602 5602 5602 5602 5602 5601 5601 5601 5600 5600 5599 5599 5599 5598 5598 5598 5598 5597 5597 5597 5597 5597 5596 5596 5595 5595 5594 5594 5593 5593 5593 5593 5593 5593 5593 5593 5593 5593 5594 5594 5594 5595 5595 5596 5596 5597 5597 5598 5598 5599 5600 5601 5602 5602 5603 5604 5604 5605 5606 5607 5607
5607 5606 5606 5605 5604 5604 5604 5603 5603 5603 5602 5602 5602 5602 5602 5602 5601 5601 5601 5600 5600 5600 5600 5600 5599 5599 5599 5599 5598 5598 5598 5597 5597 5597 5597 5596 5596 5596 5595 5595 5595 5595 5594 5594 5594 5594 5594 5594 5593 5593 5592 5592 5592 5591 5591 5591 5591 5591 5591 5591 5591 5591 5591 5591 5592 5592 5592 5593 5593 5594 5594 5595 5595 5596 5597 5597 5598 5599 5600 5601 5601 5602 5603 5603 5604 5605
5602 5602 5602 5601 5600 5600 5600 5599 5599 5599 5598 5598 5598 5598 5598 5598 5597 5597 5597 5597 5597 5597 5596 5596 5596 5596 5595 5595 5595 5595 5595 5594 5594 5594 5593 5593 5593 5592 5592 5592 5592 5592 5592 5591 5591 5591 5591 5591 5591 5590 5590 5590 5589 5589 5589 5589 5588 5588 5588 5589 5589 5589 5589 5589 5589 5589 5590 5590 5591 5591 5592 5592 5593 5593 5594 5595 5596 5597 5597 5598 5599 5599 5600 5601 5601 5602
5599 5598 5597 5597 5596 5596 5595 5595 5595 5595 5595 5594 5594 5594 5594 5594 5594 5593 5593 5593 5593 5593 5593 5593 5592 5592 5592 5592 5592 5592 5591 5591 5591 5590 5590 5590 5590 5589 5589 5589 5589 5588 5588 5588 5588 5588 5588 5588 5588 5587 5587 5587 5587 5587 5586 5586 5586 5586 5586 5586 5586 5587 5587 5587 5587 5587 5587 5587 5588 5588 5589 5590 5590 5591 5592 5592 5593 5594 5594 5595 5596 5597 5597 5598 5598 5599
5594 5594 5593 5593 5592 5592 5592 5591 5591 5591 5591 5591 5590 5590 5590 5590 5590 5590 5590 5590 5589 5589 5589 5589 5589 5589 5589 5588 5588 5588 5587 5587 5587 5587 5587 5587 5586 5586 5586 5586 5586 5585 5585 5585 5585 5585 5585 5585 5585 5585 5585 5584 5584 5584 5584 5584 5584 5584 5584 5584 5584 5584 5584 5584 5584 5584 5585 5585 5585 5586 5586 5587 5587 5588 5589 5589 5590 5591 5592 5592 5593 5594 5594 5595 5596 5596
5590 5590 5589 5589 5588 5588 5588 5587 5587 5587 5587 5587 5587 5586 5586 5586 5586 5586 5586 5586 5586 5586 5586 5586 5585 5585 5585 5585 5585 5585 5584 5584 5584 5584 5584 5583 5583 5583 5583 5582 5582 5582 5582 5582 5582 5582 5582 5582 5582 5582 5582 5582 5581 5581 5581 5581 5581 5581 5581 5581 5581 5581 5582 5582 5582 5582 5582 5582 5583 5583 5583 5584 5585 5585 5586 5587 5587 5588 5589 5589 5590 5591 5591 5592 5592 5593
5586 5586 5586 5585 5585 5584 5584 5584 5583 5583 5583 5583 5582 5582 5582 5582 5582 5582 5582 5582 5582 5582 5582 5582 5582 5582 5581 5581 5581 5581 5581 5581 5580 5580 5580 5580 5580 5580 5579 5579 5579 5579 5579 5578 5578 5578 5578 5578 5579 5579 5578 5578 5578 5578 5578 5578 5578 5578 5579 5579 5579 5579 5579 5579 5579 5579 5579 5580 5580 5581 5581 5581 5582 5582 5583 5584 5584 5585 5586 5586 5587 5587 5588 5589 5589 5590
5582 5582 5582 5581 5581 5581 5580 5580 5580 5579 5579 5579 5579 5579 5578 5578 5578 5578 5578 5578 5578 5578 5578 5578 5578 5578 5577 5577 5577 5577 5577 5577 5577 5577 5577 5577 5577 5576 5576 5576 5576 5575 5575 5575 5575 5575 5575 5575 5575 5575 5575 5575 5575 5575 5575 5576 5576 5576 5576 5576 5576 5576 5576 5576 5576 5577 5577 5577 5577 5578 5578 5578 5579 5579 5580 5581 5581 5582 5582 5583 5584 5584 5585 5586 5586 5587
5578 5578 5578 5577 5577 5577 5577 5576 5576 5576 5576 5575 5575 5575 5575 5575 5574 5574 5574 5574 5575 5575 5575 5575 5575 5574 5574 5574 5574 5574 5574 5573 5573 5573 5573 5573 5573 5573 5573 5572 5572 5572 5572 5572 5572 5572 5572 5572 5572 5572 5572 5572 5572 5572 5572 5572 5573 5573 5573 5573 5573 5573 5573 5573 5573 5574 5574 5574 5574 5575 5575 5576 5576 5577 5577 5578 5578 5579 5579 5580 5580 5581 5582 5582 5583 5583
5574 5574 5574 5573 5573 5573 5573 5572 5572 5572 5572 5572 5571 5571 5571 5571 5571 5571 5571 5571 5571 5571 5571 5571 5571 5571 5570 5570 5570 5571 5570 5570 5570 5570 5570 5569 5569 5569 5569 5569 5569 5569 5568 5568 5568 5568 5568 5568 5568 5568 5568 5568 5568 5569 5569 5569 5570 5570 5569 5570 5570 5570 5570 5571 5571 5571 5571 5571 5572 5572 5572 5573 5573 5574 5574 5575 5575 5576 5576 5577 5577 5577 5578 5579 5579 5580
5570 5570 5569 5569 5569 5569 5569 5569 5568 5568 5568 5568 5567 5567 5567 5567 5567 5567 5567 5567 5567 5567 5567 5567 5567 5567 5567 5567 5567 5567 5567 5567 5566 5566 5566 5566 5566 5566 5566 5566 5566 5566 5566 5565 5565 5565 5565 5565 5565 5565 5565 5565 5565 5565 5566 5566 5566 5566 5566 5566 5567 5567 5567 5567 5567 5567 5568 5568 5568 5569 5569 5570 5570 5570 5571 5572 5572 5572 5573 5573 5574 5574 5575 5575 5576 5577
5566 5566 5565 5565 5565 5565 5565 5565 5565 5564 5564 5564 5564 5564 5564 5563 5563 5563 5563 5563 5563 5563 5563 5563 5563 5563 5563 5563 5563 5563 5563 5563 5562 5562 5562 5562 5562 5562 5562 5562 5562 5562 5562 5562 5562 5562 5562 5562 5561 5561 5562 5562 5562 5562 5562 5562 5562 5563 5563 5563 5563 5563 5563 5564 5564 5564 5564 5565 5565 5565 5566 5566 5567 5567 5568 5568 5569 5569 5570 5570 5571 5571 5571 5572 5572 5573